THORAD DELTA 1 DEB, 42594

Orbit data source: Space-Track

THORAD DELTA 1 DEB, 42594 is space debris in SSO originally from a launch on Fri, 15 Nov 1974 UTC launched from the Air Force Western Test Range (AFWTR). Debris objects in space refer to the collection of defunct objects orbiting the Earth. Examples of debris include non-operational satellites, rocket bodies, and fragments generated from explosions, collisions, or faulty payload assembly.

Loading next visibility...
Identifier
42594, 1974-089FK
Orbit
SSO
Country
Flag of USUS
Related business
Manufacturer
Unknown
Mission
Spacecraft
Bus & Motor
Unknown
Mass
Unknown
Launch date (UTC)
1974-11-15 (52 years ago)
Launch vehicle
Unknown
Launch site
Air Force Western Test Range (AFWTR)
Object type
Payload
Rocket body
Debris
Shape & HBR
Unknown shape, 1.1 m
Radar Cross Section
Medium (>0.1 m² and <1 m²)

Expand to show TLE details & history
Last TLE update: 4 days ago

TLE from 4 days ago
0 THORAD DELTA 1 DEB
1 42594U 74089FK  26204.28239535  .00000151  00000-0  16724-2 0  9992
2 42594 100.8986 131.7293 0170447 167.0832 347.4753 12.22538968670062
Epoch: 2026-07-23T06:46Z
TLE epoch observation values (Epoch: 2026-07-23T06:46:38.958Z)
Latitude
25.40417°
Longitude
-85.73792°
Altitude
1,451.933 km
Speed
7.197 km/s
True Right ascension
21h 07m 48s
True Declination
25° 16' 59"
Sunlit
Object was in full shadow at epoch
Visualization orbit readout
Latitude
Unknown
Longitude
Unknown
Altitude
Unknown
Speed
Unknown
Apparent Right ascension
Unknown
Apparent Declination
Unknown
Sunlit
N/A
Visualization observer readout
Local Sidereal Time
17:04:36
Azimuth
Unknown
Elevation
Unknown
Doppler factor
Unknown
Orbital elements
Apogee altitude
1,714.664 km
Perigee altitude
1,443.409 km
Semi-major axis
7,957.173 km
Eccentricity
0.01704
Inclination
100.8986°
RAAN
131.7293°
Arg. of periapsis
167.0832°
True anomaly
347.04275°
Mean anomaly
347.4753°
Eccentric anomaly
347.25993°
Mean motion
3.05777 °/min
Orbital period
117.73 mins
BSTAR
0.0016724
Loading maneuver chart data...
Computing Atmospheric mass density...

Documentation

Showing up to 5 results
|